Flag for Japan Weather past 2 weeks in Kumamoto, Japan

Now
52 °F

Fog.


Feels Like: 51 °F
Forecast: 37 / 56 °F
Wind: 5 mph from West

Location: Kumamoto Airport

Current Time: Jan 26, 2015 at 8:09:10 PM

Latest Report: Jan 26, 2015 at 7:00 PM


Visibility: 2 mi

Pressure: 30.04 "Hg

Humidity: 100%

Dew point: 52 °F

Location of KumamotoLocation

Historic Weather in Kumamoto — Graph

°F

Kumamoto temperature yesterday

Maximum temperature yesterday: 57 °F (at 2:00 PM)
Minimum temperature yesterday: 37 °F (at 7:00 AM)
Average temperature yesterday: 49 °F

Past Weeks' High & Low Weather Summary

 TemperatureHumidityPressure
High57 °F (Jan 25, 2:00 PM)100% (Jan 15, 3:47 PM)30.48 "Hg (Jan 15, 3:47 PM)
Low28 °F (Jan 12, 7:00 AM)29% (Jan 17, 2:00 PM)29.83 "Hg (Jan 22, 2:00 PM)
Average45 °F68%30.17 "Hg
* Reported Jan 11 7:00 PM — Jan 26 7:00 PM, Kumamoto, Weather by CustomWeather, © 2014

Note: Actual official high and low records may vary slightly from our data, if they occured in-between our weather recording intervals... More about our weather records

Advertising

Kumamoto weather history for previous 24 hours

 ConditionsComfort  
Time TempWeatherWind HumidityBarometerVisibility
7:00 PM
Jan 26
52 °FFog.5 mph100%30.04 "Hg2 mi
6:00 PM54 °FFog.7 mph100%30.01 "Hg1 mi
5:00 PM54 °FFog.10 mph100%30.01 "Hg1 mi
4:51 PM54 °FFog.9 mph100%30.01 "Hg0 mi
4:03 PM54 °FLight rain. Fog.7 mph100%29.95 "Hg0 mi
4:00 PM54 °FLight rain. Fog.7 mph100%29.95 "Hg0 mi
3:00 PM54 °FLight rain. Fog.5 mph94%29.98 "Hg1 mi
2:00 PM54 °FSprinkles. Fog.3 mph100%29.98 "Hg1 mi
1:00 PM54 °FSprinkles. Fog.2 mph100%29.98 "Hg2 mi
12:03 PM54 °FSprinkles. Fog.2 mph94%30.04 "Hg0 mi
12:00 PM54 °FSprinkles. Fog.2 mph94%30.04 "Hg0 mi
11:49 AM54 °FSprinkles. Fog.3 mph94%30.04 "Hg1 mi
11:00 AM54 °FSprinkles. Broken clouds.6 mph100%30.07 "Hg5 mi
10:00 AM50 °FRain showers. Fog.3 mph100%30.07 "Hg1 mi
9:00 AM52 °FRain showers. Fog.6 mph94%30.07 "Hg3 mi
8:00 AM52 °FSprinkles. Partly sunny.9 mph94%30.07 "Hg4 mi
7:00 AM50 °FRain showers. Fog.No wind94%30.09 "Hg3 mi
9:00 PM
Jan 25
50 °FClear.7 mph58%30.21 "Hg10 mi
8:00 PM50 °FClear.6 mph62%30.24 "Hg10 mi
Weather by CustomWeather, © 2014

See weather overviewHow to use our weather pages